Time,TemperatureF,DewpointF,PressureIn,WindDirection,WindDirectionDegrees,WindSpeedMPH,WindSpeedGustMPH,Humidity,HourlyPrecipIn,Conditions,Clouds,dailyrainin,SolarRadiationWatts/m^2,SoftwareType,DateUTC
2013-12-09 00:12:00,31.0,30.0,-100.00,West,279,1.0,4.0,95,0.00,,,0.01,0.000000,,2013-12-09 06:12:00,
2013-12-09 00:22:00,31.0,30.0,-100.00,West,279,1.0,4.0,95,0.00,,,0.01,0.000000,,2013-12-09 06:22:00,
2013-12-09 00:32:00,31.0,30.0,-100.00,West,279,1.0,4.0,95,0.00,,,0.01,0.000000,,2013-12-09 06:32:00,
2013-12-09 00:42:00,31.0,30.0,-100.00,West,279,1.0,4.0,95,0.00,,,0.01,0.000000,,2013-12-09 06:42:00,
2013-12-09 01:11:00,29.0,28.0,-100.00,North,9,1.0,4.0,95,0.00,,,0.01,0.000000,,2013-12-09 07:11:00,
2013-12-09 01:22:00,29.0,28.0,-100.00,North,9,1.0,4.0,95,0.00,,,0.01,0.000000,,2013-12-09 07:22:00,
2013-12-09 01:32:00,29.0,28.0,-100.00,North,9,1.0,4.0,95,0.00,,,0.01,0.000000,,2013-12-09 07:32:00,
2013-12-09 01:42:00,29.0,28.0,-100.00,North,9,1.0,4.0,95,0.00,,,0.01,0.000000,,2013-12-09 07:42:00,
2013-12-09 02:11:00,31.0,30.0,-100.00,NE,41,3.0,6.0,95,0.00,,,0.01,0.000000,,2013-12-09 08:11:00,
2013-12-09 02:22:00,31.0,30.0,-100.00,NE,41,3.0,6.0,95,0.00,,,0.01,0.000000,,2013-12-09 08:22:00,
2013-12-09 02:32:00,31.0,30.0,-100.00,NE,41,3.0,6.0,95,0.00,,,0.01,0.000000,,2013-12-09 08:32:00,
2013-12-09 02:42:00,31.0,30.0,-100.00,NE,41,3.0,6.0,95,0.00,,,0.01,0.000000,,2013-12-09 08:42:00,
2013-12-09 03:12:00,32.0,31.0,-100.00,SW,221,4.0,6.0,96,0.00,,,0.01,0.000000,,2013-12-09 09:12:00,
2013-12-09 03:22:00,32.0,31.0,-100.00,SW,221,4.0,6.0,96,0.00,,,0.01,0.000000,,2013-12-09 09:22:00,
2013-12-09 03:33:00,32.0,31.0,-100.00,SW,221,4.0,6.0,96,0.00,,,0.01,0.000000,,2013-12-09 09:33:00,
2013-12-09 03:43:00,32.0,31.0,-100.00,SW,221,4.0,6.0,96,0.00,,,0.01,0.000000,,2013-12-09 09:43:00,
2013-12-09 04:13:00,33.0,32.0,-100.00,ENE,63,1.0,5.0,96,0.00,,,0.01,0.000000,,2013-12-09 10:13:00,
2013-12-09 04:23:00,33.0,32.0,-100.00,ENE,63,1.0,5.0,96,0.00,,,0.01,0.000000,,2013-12-09 10:23:00,
2013-12-09 04:33:00,33.0,32.0,-100.00,ENE,63,1.0,5.0,96,0.00,,,0.01,0.000000,,2013-12-09 10:33:00,
2013-12-09 04:43:00,33.0,32.0,-100.00,ENE,63,1.0,5.0,96,0.00,,,0.01,0.000000,,2013-12-09 10:43:00,
2013-12-09 05:12:00,33.0,32.0,-100.00,NE,39,4.0,7.0,97,0.00,,,0.01,0.000000,,2013-12-09 11:12:00,
2013-12-09 05:22:00,33.0,32.0,-100.00,NE,39,4.0,7.0,97,0.00,,,0.01,0.000000,,2013-12-09 11:22:00,
2013-12-09 05:33:00,33.0,32.0,-100.00,NE,39,4.0,7.0,97,0.00,,,0.01,0.000000,,2013-12-09 11:33:00,
2013-12-09 05:42:00,33.0,32.0,-100.00,NE,39,4.0,7.0,97,0.00,,,0.01,0.000000,,2013-12-09 11:42:00,
2013-12-09 06:12:00,34.0,33.0,-100.00,NNE,22,5.0,10.0,97,0.00,,,0.01,0.000000,,2013-12-09 12:12:00,
2013-12-09 06:22:00,34.0,33.0,-100.00,NNE,22,5.0,10.0,97,0.00,,,0.01,0.000000,,2013-12-09 12:22:00,
2013-12-09 06:32:00,34.0,33.0,-100.00,NNE,22,5.0,10.0,97,0.00,,,0.01,0.000000,,2013-12-09 12:32:00,
2013-12-09 06:42:00,34.0,33.0,-100.00,NNE,22,5.0,10.0,97,0.00,,,0.01,0.000000,,2013-12-09 12:42:00,
2013-12-09 07:12:00,35.0,34.0,-100.00,NNE,20,4.0,10.0,97,0.00,,,0.01,0.000000,,2013-12-09 13:12:00,
2013-12-09 07:22:00,35.0,34.0,-100.00,NNE,20,4.0,10.0,97,0.00,,,0.01,0.000000,,2013-12-09 13:22:00,
2013-12-09 07:32:00,35.0,34.0,-100.00,NNE,20,4.0,10.0,97,0.00,,,0.01,0.000000,,2013-12-09 13:32:00,
2013-12-09 07:42:00,35.0,34.0,-100.00,NNE,20,4.0,10.0,97,0.00,,,0.01,0.000000,,2013-12-09 13:42:00,
2013-12-09 08:12:00,36.0,35.0,-100.00,North,5,4.0,12.0,97,0.00,,,0.01,2.000000,,2013-12-09 14:12:00,
2013-12-09 08:22:00,36.0,35.0,-100.00,North,5,4.0,12.0,97,0.00,,,0.01,2.000000,,2013-12-09 14:22:00,
2013-12-09 08:32:00,36.0,35.0,-100.00,North,5,4.0,12.0,97,0.00,,,0.01,2.000000,,2013-12-09 14:32:00,
2013-12-09 08:42:00,36.0,35.0,-100.00,North,5,4.0,12.0,97,0.00,,,0.01,2.000000,,2013-12-09 14:42:00,
2013-12-09 09:12:00,36.0,35.0,-100.00,NE,44,5.0,12.0,97,0.00,,,0.01,19.000000,,2013-12-09 15:12:00,
2013-12-09 09:22:00,36.0,35.0,-100.00,NE,44,5.0,12.0,97,0.00,,,0.01,19.000000,,2013-12-09 15:22:00,
2013-12-09 09:33:00,36.0,35.0,-100.00,NE,44,5.0,12.0,97,0.00,,,0.01,19.000000,,2013-12-09 15:33:00,
2013-12-09 09:43:00,36.0,35.0,-100.00,NE,44,5.0,12.0,97,0.00,,,0.01,19.000000,,2013-12-09 15:43:00,
2013-12-09 10:13:00,37.0,36.0,-100.00,NNE,32,4.0,9.0,97,0.01,,,0.01,50.000000,,2013-12-09 16:13:00,
2013-12-09 10:23:00,37.0,36.0,-100.00,NNE,32,4.0,9.0,97,0.01,,,0.01,50.000000,,2013-12-09 16:23:00,
2013-12-09 10:33:00,37.0,36.0,-100.00,NNE,32,4.0,9.0,97,0.01,,,0.01,50.000000,,2013-12-09 16:33:00,
2013-12-09 10:43:00,37.0,36.0,-100.00,NNE,32,4.0,9.0,97,0.01,,,0.01,50.000000,,2013-12-09 16:43:00,
2013-12-09 11:12:00,37.0,35.0,-100.00,NNE,18,6.0,12.0,94,0.01,,,0.02,82.000000,,2013-12-09 17:12:00,
2013-12-09 11:23:00,37.0,35.0,-100.00,NNE,18,6.0,12.0,94,0.01,,,0.02,82.000000,,2013-12-09 17:23:00,
2013-12-09 11:33:00,37.0,35.0,-100.00,NNE,18,6.0,12.0,94,0.01,,,0.02,82.000000,,2013-12-09 17:33:00,
2013-12-09 11:42:00,37.0,35.0,-100.00,NNE,18,6.0,12.0,94,0.01,,,0.02,82.000000,,2013-12-09 17:42:00,
2013-12-09 12:12:00,37.0,35.0,-100.00,NE,37,4.0,12.0,93,0.01,,,0.03,83.000000,,2013-12-09 18:12:00,
2013-12-09 12:22:00,37.0,35.0,-100.00,NE,37,4.0,12.0,93,0.01,,,0.03,83.000000,,2013-12-09 18:22:00,
2013-12-09 12:32:00,37.0,35.0,-100.00,NE,37,4.0,12.0,93,0.01,,,0.03,83.000000,,2013-12-09 18:32:00,
2013-12-09 12:43:00,37.0,35.0,-100.00,NE,37,4.0,12.0,93,0.01,,,0.03,83.000000,,2013-12-09 18:43:00,
2013-12-09 13:12:00,36.0,34.0,-100.00,North,354,7.0,12.0,92,0.00,,,0.03,92.000000,,2013-12-09 19:12:00,
2013-12-09 13:22:00,36.0,34.0,-100.00,North,354,7.0,12.0,92,0.00,,,0.03,92.000000,,2013-12-09 19:22:00,
2013-12-09 13:32:00,36.0,34.0,-100.00,North,354,7.0,12.0,92,0.00,,,0.03,92.000000,,2013-12-09 19:32:00,
2013-12-09 13:42:00,36.0,34.0,-100.00,North,354,7.0,12.0,92,0.00,,,0.03,92.000000,,2013-12-09 19:42:00,
2013-12-09 14:11:00,35.0,33.0,-100.00,North,354,7.0,12.0,92,0.00,,,0.03,93.000000,,2013-12-09 20:11:00,
2013-12-09 14:22:00,35.0,33.0,-100.00,North,354,7.0,12.0,92,0.00,,,0.03,93.000000,,2013-12-09 20:22:00,
2013-12-09 14:32:00,35.0,33.0,-100.00,North,354,7.0,12.0,92,0.00,,,0.03,93.000000,,2013-12-09 20:32:00,
2013-12-09 14:42:00,35.0,33.0,-100.00,North,354,7.0,12.0,92,0.00,,,0.03,93.000000,,2013-12-09 20:42:00,
2013-12-09 15:12:00,35.0,33.0,-100.00,North,356,7.0,12.0,91,0.00,,,0.03,96.000000,,2013-12-09 21:12:00,
2013-12-09 15:22:00,35.0,33.0,-100.00,North,356,7.0,12.0,91,0.00,,,0.03,96.000000,,2013-12-09 21:22:00,
2013-12-09 15:33:00,35.0,33.0,-100.00,North,356,7.0,12.0,91,0.00,,,0.03,96.000000,,2013-12-09 21:33:00,
2013-12-09 15:44:00,35.0,33.0,-100.00,North,356,7.0,12.0,91,0.00,,,0.03,96.000000,,2013-12-09 21:44:00,
2013-12-09 16:23:00,34.0,32.0,-100.00,North,358,8.0,14.0,92,0.00,,,0.03,61.000000,,2013-12-09 22:23:00,
2013-12-09 16:33:00,34.0,32.0,-100.00,North,358,8.0,14.0,92,0.00,,,0.03,61.000000,,2013-12-09 22:33:00,
2013-12-09 16:43:00,34.0,32.0,-100.00,North,358,8.0,14.0,92,0.00,,,0.03,61.000000,,2013-12-09 22:43:00,
2013-12-09 17:12:00,33.0,31.0,-100.00,North,355,9.0,15.0,92,0.00,,,0.03,30.000000,,2013-12-09 23:12:00,
2013-12-09 17:22:00,33.0,31.0,-100.00,North,355,9.0,15.0,92,0.00,,,0.03,30.000000,,2013-12-09 23:22:00,
2013-12-09 17:33:00,33.0,31.0,-100.00,North,355,9.0,15.0,92,0.00,,,0.03,30.000000,,2013-12-09 23:33:00,
2013-12-09 17:43:00,33.0,31.0,-100.00,North,355,9.0,15.0,92,0.00,,,0.03,30.000000,,2013-12-09 23:43:00,
2013-12-09 18:12:00,33.0,31.0,-100.00,North,2,9.0,17.0,94,0.01,,,0.04,4.000000,,2013-12-10 00:12:00,
2013-12-09 18:22:00,33.0,31.0,-100.00,North,2,9.0,17.0,94,0.01,,,0.04,4.000000,,2013-12-10 00:22:00,
2013-12-09 18:32:00,33.0,31.0,-100.00,North,2,9.0,17.0,94,0.01,,,0.04,4.000000,,2013-12-10 00:32:00,
2013-12-09 18:42:00,33.0,31.0,-100.00,North,2,9.0,17.0,94,0.01,,,0.04,4.000000,,2013-12-10 00:42:00,
2013-12-09 19:11:00,32.0,30.0,-100.00,North,352,9.0,16.0,93,0.00,,,0.04,0.000000,,2013-12-10 01:11:00,
2013-12-09 19:22:00,32.0,30.0,-100.00,North,352,9.0,16.0,93,0.00,,,0.04,0.000000,,2013-12-10 01:22:00,
2013-12-09 19:32:00,32.0,30.0,-100.00,North,352,9.0,16.0,93,0.00,,,0.04,0.000000,,2013-12-10 01:32:00,
2013-12-09 19:42:00,32.0,30.0,-100.00,North,352,9.0,16.0,93,0.00,,,0.04,0.000000,,2013-12-10 01:42:00,
2013-12-09 20:12:00,32.0,30.0,-100.00,North,356,11.0,17.0,93,0.00,,,0.04,0.000000,,2013-12-10 02:12:00,
2013-12-09 20:22:00,32.0,30.0,-100.00,North,356,11.0,17.0,93,0.00,,,0.04,0.000000,,2013-12-10 02:22:00,
2013-12-09 20:32:00,32.0,30.0,-100.00,North,356,11.0,17.0,93,0.00,,,0.04,0.000000,,2013-12-10 02:32:00,
2013-12-09 20:42:00,32.0,30.0,-100.00,North,356,11.0,17.0,93,0.00,,,0.04,0.000000,,2013-12-10 02:42:00,
2013-12-09 21:11:00,32.0,30.0,-100.00,NNW,346,9.0,17.0,91,0.00,,,-99.99,0.000000,,2013-12-10 03:11:00,
2013-12-09 21:22:00,32.0,30.0,-100.00,NNW,346,9.0,17.0,91,0.00,,,-99.99,0.000000,,2013-12-10 03:22:00,
2013-12-09 21:33:00,32.0,30.0,-100.00,NNW,346,9.0,17.0,91,0.00,,,-99.99,0.000000,,2013-12-10 03:33:00,
2013-12-09 21:43:00,32.0,30.0,-100.00,NNW,346,9.0,17.0,91,0.00,,,-99.99,0.000000,,2013-12-10 03:43:00,
2013-12-09 22:13:00,32.0,29.0,-100.00,NNW,344,9.0,17.0,90,0.00,,,0.04,0.000000,,2013-12-10 04:13:00,
2013-12-09 22:23:00,32.0,29.0,-100.00,NNW,344,9.0,17.0,90,0.00,,,0.04,0.000000,,2013-12-10 04:23:00,
2013-12-09 22:33:00,32.0,29.0,-100.00,NNW,344,9.0,17.0,90,0.00,,,0.04,0.000000,,2013-12-10 04:33:00,
2013-12-09 22:43:00,32.0,29.0,-100.00,NNW,344,9.0,17.0,90,0.00,,,0.04,0.000000,,2013-12-10 04:43:00,
2013-12-09 23:12:00,32.0,28.0,-100.00,NNW,337,9.0,20.0,86,0.00,,,0.04,0.000000,,2013-12-10 05:12:00,
2013-12-09 23:22:00,32.0,28.0,-100.00,NNW,337,9.0,20.0,86,0.00,,,0.04,0.000000,,2013-12-10 05:22:00,
2013-12-09 23:33:00,32.0,28.0,-100.00,NNW,337,9.0,20.0,86,0.00,,,0.04,0.000000,,2013-12-10 05:33:00,
2013-12-09 23:42:00,32.0,28.0,-100.00,NNW,337,9.0,20.0,86,0.00,,,0.04,0.000000,,2013-12-10 05:42:00,